Houston, TX

4:33 AM CDT on April 26, 2017 (GMT -0500)
Hobby

Weather History for KHOU - August, 2013

Change the Weather History Date:

Saturday, August 31, 2013

  Actual Average Record
Temperature  
Mean Temperature 85 °F 83 °F  
Max Temperature 95 °F 93 °F 107 °F (2000)
Min Temperature 75 °F 74 °F 62 °F (1893)
Cooling Degree Days 20 18  
Month to date cooling degree days 636 609  
Year to date cooling degree days 2393 2382  
Since 1 June cooling degree days 1823 1730  
Growing Degree Days 34 (Base 50)    
Moisture  
Dew Point 71 °F    
Average Humidity 70    
Maximum Humidity 94    
Minimum Humidity 46    
Precipitation  
Precipitation 0.00 in 0.16 in 5.98 in (1981)
Month to date precipitation 3.33 3.76  
Year to date precipitation 21.20 31.87  
Sea Level Pressure  
Sea Level Pressure 29.92 in    
Wind  
Wind Speed 4 mph (SSW)    
Max Wind Speed 14 mph    
Max Gust Speed 17 mph    
Visibility 10 miles    
Events      
T = Trace of Precipitation, MM = Missing Value Source: NWS Daily Summary

Daily Weather History Graph

Daily Weather History Graph

Search for Another Location

Airport or City:

Trip Planner

Search our weather history database for the weather conditions in past years. The results will help you decide how hot, cold, wet, or windy it might be!

Date:

Astronomy

Aug. 31, 2013 Rise Set
Actual Time 6:58 AM CDT 7:44 PM CDT
Civil Twilight 6:33 AM CDT 8:08 PM CDT
Nautical Twilight 6:05 AM CDT 8:36 PM CDT
Astronomical Twilight 5:35 AM CDT 9:06 PM CDT
Moon 2:40 AM CDT (8/31) 4:31 PM CDT (8/31)
Length of Visible Light 13h 34m
Length of Day
12h 46m
Waning Crescent, 21% of the Moon is Illuminated
Aug 31
Waning Crescent
Sep 5
New
Sep 12
First Quarter
Sep 19
Full
Sep 26
Last Quarter

Hourly Weather History & Observations

Time (CDT) Temp. Heat Index Dew Point Humidity Pressure Visibility Wind Dir Wind Speed Gust Speed Precip Events Conditions
12:53 AM 79.0 °F - 72.0 °F 79% 29.93 in 10.0 mi South 3.5 mph - N/A   Clear
1:53 AM 78.1 °F - 72.0 °F 81% 29.93 in 10.0 mi South 4.6 mph - N/A   Clear
2:53 AM 78.1 °F - 72.0 °F 81% 29.94 in 10.0 mi SSW 3.5 mph - N/A   Partly Cloudy
3:53 AM 77.0 °F - 72.0 °F 84% 29.94 in 9.0 mi South 3.5 mph - N/A   Partly Cloudy
4:53 AM 75.9 °F - 72.0 °F 87% 29.94 in 9.0 mi WSW 3.5 mph - N/A   Partly Cloudy
5:53 AM 75.9 °F - 72.0 °F 87% 29.94 in 9.0 mi Calm Calm - N/A   Partly Cloudy
6:53 AM 75.0 °F - 72.0 °F 90% 29.95 in 9.0 mi Calm Calm - N/A   Partly Cloudy
7:53 AM 78.1 °F - 72.0 °F 81% 29.96 in 10.0 mi Calm Calm - N/A   Clear
8:53 AM 82.0 °F 87.4 °F 73.0 °F 74% 29.96 in 10.0 mi WSW 4.6 mph - N/A   Clear
9:53 AM 84.9 °F 90.1 °F 71.1 °F 63% 29.97 in 10.0 mi WSW 6.9 mph - N/A   Clear
10:53 AM 87.1 °F 92.8 °F 71.1 °F 59% 29.96 in 10.0 mi Variable 4.6 mph - N/A   Partly Cloudy
11:53 AM 88.0 °F 92.1 °F 69.1 °F 53% 29.96 in 10.0 mi WSW 4.6 mph - N/A   Partly Cloudy
12:53 PM 91.9 °F 95.9 °F 68.0 °F 45% 29.94 in 10.0 mi Calm Calm - N/A   Partly Cloudy
1:53 PM 93.0 °F 97.4 °F 68.0 °F 44% 29.92 in 10.0 mi Variable 4.6 mph - N/A   Partly Cloudy
2:53 PM 91.0 °F 95.2 °F 68.0 °F 47% 29.90 in 10.0 mi Calm Calm - N/A   Partly Cloudy
3:53 PM 93.9 °F 98.6 °F 68.0 °F 43% 29.88 in 10.0 mi Variable 3.5 mph - N/A   Scattered Clouds
4:53 PM 93.0 °F 97.9 °F 69.1 °F 45% 29.86 in 10.0 mi SSE 8.1 mph - N/A   Scattered Clouds
5:53 PM 91.0 °F 98.2 °F 72.0 °F 53% 29.86 in 10.0 mi South 8.1 mph - N/A   Partly Cloudy
6:53 PM 88.0 °F 94.7 °F 72.0 °F 59% 29.86 in 10.0 mi SSE 10.4 mph - N/A   Partly Cloudy
7:53 PM 84.9 °F 90.7 °F 72.0 °F 65% 29.87 in 10.0 mi South 8.1 mph - N/A   Partly Cloudy
8:53 PM 82.9 °F 87.5 °F 71.1 °F 67% 29.88 in 10.0 mi South 6.9 mph - N/A   Clear
9:53 PM 81.0 °F 84.9 °F 71.1 °F 72% 29.89 in 10.0 mi South 6.9 mph - N/A   Clear
10:53 PM 80.1 °F 83.6 °F 71.1 °F 74% 29.89 in 10.0 mi South 5.8 mph - N/A   Clear
11:53 PM 79.0 °F - 71.1 °F 77% 29.89 in 10.0 mi South 4.6 mph - N/A   Clear